| time (UTC) | temp F | wind direction | speed knots | gust knots | rain 1hr in | rain 24hr in | rain mn in | humidity % | barometer mb |
| 20260505225023 | 55 | 176 | 1.7 | 2.6 | 0.00 | 0.00 | 0.00 | 72 | 1028.9 |
| 20260505224002 | 55 | 113 | 1.7 | 5.2 | 0.00 | 0.00 | 0.00 | 72 | 1028.7 |
| 20260505223023 | 55 | 58 | 1.7 | 2.6 | 0.00 | 0.00 | 0.00 | 72 | 1028.5 |
| 20260505222002 | 55 | 91 | 1.7 | 5.2 | 0.00 | 0.00 | 0.00 | 72 | 1028.4 |
| 20260505221023 | 55 | 0 | 1.7 | 4.3 | 0.00 | 0.00 | 0.00 | 73 | 1028.3 |
| 20260505220002 | 55 | 179 | 1.7 | 5.2 | 0.00 | 0.00 | 0.00 | 72 | 1028.2 |
| 20260505215002 | 55 | 221 | 2.6 | 5.2 | 0.00 | 0.00 | 0.00 | 72 | 1028.1 |
| 20260505214002 | 55 | 37 | 2.6 | 6.1 | 0.00 | 0.00 | 0.00 | 73 | 1028.0 |
| 20260505213002 | 54 | 36 | 1.7 | 2.6 | 0.00 | 0.00 | 0.00 | 75 | 1027.9 |
| 20260505212002 | 54 | 22 | 0.9 | 1.7 | 0.00 | 0.00 | 0.00 | 76 | 1027.9 |
| 20260505211023 | 54 | 229 | 0.9 | 1.7 | 0.00 | 0.00 | 0.00 | 76 | 1027.9 |
| 20260505210002 | 54 | 207 | 0.9 | 5.2 | 0.00 | 0.00 | 0.00 | 75 | 1027.8 |
| 20260505205002 | 54 | 2 | 1.7 | 4.3 | 0.00 | 0.00 | 0.00 | 73 | 1027.7 |
| 20260505204002 | 55 | 226 | 1.7 | 4.3 | 0.00 | 0.00 | 0.00 | 72 | 1027.7 |
| 20260505202023 | 56 | 234 | 2.6 | 5.2 | 0.00 | 0.00 | 0.00 | 69 | 1027.5 |
| 20260505201002 | 56 | 214 | 1.7 | 5.2 | 0.00 | 0.00 | 0.00 | 70 | 1027.5 |
| 20260505200002 | 56 | 99 | 4.3 | 7.0 | 0.00 | 0.00 | 0.00 | 69 | 1027.4 |
| 20260505195023 | 57 | 130 | 4.3 | 7.8 | 0.00 | 0.00 | 0.00 | 69 | 1027.4 |
| 20260505194023 | 57 | 130 | 2.6 | 8.7 | 0.00 | 0.00 | 0.00 | 68 | 1027.4 |
| 20260505193002 | 57 | 175 | 2.6 | 5.2 | 0.00 | 0.00 | 0.00 | 68 | 1027.4 |
| 20260505192002 | 57 | 210 | 1.7 | 7.8 | 0.00 | 0.00 | 0.00 | 67 | 1027.4 |
| 20260505191023 | 57 | 162 | 1.7 | 4.3 | 0.00 | 0.00 | 0.00 | 66 | 1027.3 |
| 20260505185002 | 58 | 129 | 2.6 | 6.1 | 0.00 | 0.00 | 0.00 | 65 | 1027.3 |
| 20260505184023 | 57 | 89 | 4.3 | 7.8 | 0.00 | 0.00 | 0.00 | 66 | 1027.3 |
| 20260505183002 | 57 | 33 | 2.6 | 7.8 | 0.00 | 0.00 | 0.00 | 65 | 1027.5 |
| 20260505182002 | 58 | 231 | 2.6 | 6.1 | 0.00 | 0.00 | 0.00 | 63 | 1027.4 |
| 20260505181023 | 59 | 126 | 2.6 | 6.1 | 0.00 | 0.00 | 0.00 | 62 | 1027.3 |
| 20260505180002 | 59 | 167 | 1.7 | 2.6 | 0.00 | 0.00 | 0.00 | 61 | 1027.2 |
| 20260505175002 | 59 | 106 | 1.7 | 4.3 | 0.00 | 0.00 | 0.00 | 60 | 1027.3 |
| 20260505174023 | 59 | 93 | 4.3 | 7.0 | 0.00 | 0.00 | 0.00 | 60 | 1027.3 |
| 20260505173002 | 59 | 90 | 4.3 | 7.0 | 0.00 | 0.00 | 0.00 | 60 | 1027.2 |
| 20260505172022 | 60 | 91 | 4.3 | 7.8 | 0.00 | 0.00 | 0.00 | 59 | 1027.3 |
| 20260505171003 | 60 | 85 | 3.5 | 7.0 | 0.00 | 0.00 | 0.00 | 58 | 1027.2 |
| 20260505170001 | 61 | 115 | 1.7 | 4.3 | 0.00 | 0.00 | 0.00 | 57 | 1027.1 |
| 20260505165002 | 61 | 96 | 5.2 | 8.7 | 0.00 | 0.00 | 0.00 | 57 | 1027.1 |
| 20260505164002 | 61 | 114 | 3.5 | 11.3 | 0.00 | 0.00 | 0.00 | 57 | 1027.1 |
| 20260505163002 | 61 | 107 | 1.7 | 4.3 | 0.00 | 0.00 | 0.00 | 57 | 1027.0 |
| 20260505162002 | 61 | 94 | 3.5 | 7.0 | 0.00 | 0.00 | 0.00 | 57 | 1027.0 |
| 20260505161002 | 61 | 109 | 4.3 | 7.8 | 0.00 | 0.00 | 0.00 | 57 | 1026.9 |
| 20260505151002 | 60 | 117 | 2.6 | 7.0 | 0.00 | 0.00 | 0.00 | 61 | 1027.1 |
| 20260505125002 | 58 | 162 | 0.0 | 0.0 | 0.00 | 0.00 | 0.00 | 71 | 1026.9 |
| 20260505124002 | 58 | 226 | 0.9 | 1.7 | 0.00 | 0.00 | 0.00 | 71 | 1026.9 |
| 20260505123001 | 59 | 207 | 0.9 | 2.6 | 0.00 | 0.00 | 0.00 | 70 | 1026.9 |
| 20260505122002 | 59 | 204 | 0.9 | 1.7 | 0.00 | 0.00 | 0.00 | 70 | 1026.8 |
| 20260505121002 | 59 | 191 | 0.9 | 1.7 | 0.00 | 0.00 | 0.00 | 69 | 1026.8 |
| 20260505120003 | 60 | 197 | 0.9 | 0.9 | 0.00 | 0.00 | 0.00 | 69 | 1026.8 |
| 20260505115002 | 60 | 203 | 0.9 | 0.9 | 0.00 | 0.00 | 0.00 | 69 | 1026.7 |
| 20260505114002 | 60 | 188 | 0.9 | 0.9 | 0.00 | 0.00 | 0.00 | 68 | 1026.6 |
| 20260505113003 | 60 | 185 | 0.9 | 0.9 | 0.00 | 0.00 | 0.00 | 68 | 1026.6 |
| 20260505112002 | 61 | 214 | 0.9 | 0.9 | 0.00 | 0.00 | 0.00 | 68 | 1026.6 |
| 20260505111002 | 61 | 226 | 0.0 | 0.0 | 0.00 | 0.00 | 0.00 | 67 | 1026.6 |
| 20260505102023 | 64 | 193 | 0.9 | 1.7 | 0.00 | 0.00 | 0.00 | 63 | 1026.0 |
| 20260505101023 | 65 | 185 | 0.9 | 1.7 | 0.00 | 0.00 | 0.00 | 62 | 1025.9 |
| 20260505100003 | 66 | 184 | 0.9 | 2.6 | 0.00 | 0.00 | 0.00 | 61 | 1025.8 |
| 20260505095002 | 66 | 198 | 0.9 | 1.7 | 0.00 | 0.00 | 0.00 | 60 | 1025.7 |
| 20260505094002 | 67 | 197 | 0.9 | 2.6 | 0.00 | 0.00 | 0.00 | 58 | 1025.6 |
| 20260505093002 | 68 | 197 | 0.9 | 1.7 | 0.00 | 0.00 | 0.00 | 57 | 1025.6 |
| 20260505092023 | 68 | 198 | 1.7 | 7.0 | 0.00 | 0.00 | 0.00 | 56 | 1025.5 |
| 20260505091002 | 69 | 200 | 0.9 | 1.7 | 0.00 | 0.00 | 0.00 | 55 | 1025.4 |
| 20260505090023 | 69 | 185 | 0.9 | 1.7 | 0.00 | 0.00 | 0.00 | 54 | 1025.4 |
| 20260505085002 | 70 | 191 | 0.9 | 1.7 | 0.00 | 0.00 | 0.00 | 53 | 1025.3 |
| 20260505084002 | 71 | 195 | 1.7 | 5.2 | 0.00 | 0.00 | 0.00 | 53 | 1025.2 |
| 20260505083002 | 71 | 199 | 0.9 | 1.7 | 0.00 | 0.00 | 0.00 | 48 | 1025.2 |
| 20260505082002 | 72 | 195 | 0.9 | 2.6 | 0.00 | 0.00 | 0.00 | 47 | 1025.2 |
| 20260505081002 | 73 | 206 | 0.9 | 2.6 | 0.00 | 0.00 | 0.00 | 45 | 1025.2 |
| 20260505080002 | 74 | 166 | 0.9 | 1.7 | 0.00 | 0.00 | 0.00 | 45 | 1025.1 |
| 20260505075002 | 75 | 181 | 0.9 | 2.6 | 0.00 | 0.00 | 0.00 | 44 | 1025.1 |
| 20260505074002 | 76 | 202 | 0.9 | 1.7 | 0.00 | 0.00 | 0.00 | 42 | 1025.1 |
| 20260505073023 | 76 | 199 | 0.9 | 0.9 | 0.00 | 0.00 | 0.00 | 42 | 1025.0 |
| 20260505072007 | 76 | 1 | 1.7 | 1.7 | 0.00 | 0.00 | 0.00 | 41 | 1025.1 |
| 20260505071003 | 75 | 64 | 1.7 | 5.2 | 0.00 | 0.00 | 0.00 | 42 | 1025.1 |
| 20260505070024 | 75 | 63 | 2.6 | 7.0 | 0.00 | 0.00 | 0.00 | 41 | 1025.0 |
| 20260505065002 | 76 | 208 | 1.7 | 2.6 | 0.00 | 0.00 | 0.00 | 41 | 1025.1 |
| 20260505063002 | 75 | 166 | 1.7 | 2.6 | 0.00 | 0.00 | 0.00 | 41 | 1025.1 |
| 20260505062002 | 76 | 56 | 0.9 | 4.3 | 0.00 | 0.00 | 0.00 | 41 | 1025.1 |
| 20260505061023 | 75 | 208 | 0.9 | 1.7 | 0.00 | 0.00 | 0.00 | 41 | 1025.1 |
| 20260505060024 | 75 | 172 | 0.9 | 1.7 | 0.00 | 0.00 | 0.00 | 42 | 1025.2 |
| 20260505055003 | 75 | 188 | 1.7 | 4.3 | 0.00 | 0.00 | 0.00 | 40 | 1025.2 |
| 20260505054002 | 76 | 187 | 0.9 | 1.7 | 0.00 | 0.00 | 0.00 | 40 | 1025.2 |
| 20260505053002 | 75 | 10 | 1.7 | 4.3 | 0.00 | 0.00 | 0.00 | 41 | 1025.3 |
| 20260505052002 | 75 | 180 | 1.7 | 2.6 | 0.00 | 0.00 | 0.00 | 42 | 1025.4 |
| 20260505051002 | 75 | 218 | 0.9 | 1.7 | 0.00 | 0.00 | 0.00 | 42 | 1025.6 |
| 20260505041001 | 71 | 65 | 2.6 | 5.2 | 0.00 | 0.00 | 0.00 | 47 | 1026.5 |
| 20260505040002 | 71 | 49 | 0.9 | 4.3 | 0.00 | 0.00 | 0.00 | 48 | 1026.7 |
| 20260505035002 | 70 | 128 | 1.7 | 2.6 | 0.00 | 0.00 | 0.00 | 49 | 1026.8 |
| 20260505034003 | 70 | 32 | 2.6 | 5.2 | 0.00 | 0.00 | 0.00 | 49 | 1026.9 |
| 20260505033003 | 69 | 34 | 0.9 | 1.7 | 0.00 | 0.00 | 0.00 | 49 | 1027.1 |
| 20260505031002 | 69 | 13 | 2.6 | 6.1 | 0.00 | 0.00 | 0.00 | 50 | 1027.2 |
| 20260505030002 | 69 | 32 | 2.6 | 5.2 | 0.00 | 0.00 | 0.00 | 49 | 1027.2 |
| 20260505025002 | 69 | 70 | 3.5 | 5.2 | 0.00 | 0.00 | 0.00 | 50 | 1027.2 |
| 20260505024003 | 68 | 64 | 4.3 | 7.0 | 0.00 | 0.00 | 0.00 | 50 | 1027.3 |
| 20260505023003 | 67 | 10 | 2.6 | 5.2 | 0.00 | 0.00 | 0.00 | 51 | 1027.3 |
| 20260505022002 | 68 | 21 | 2.6 | 5.2 | 0.00 | 0.00 | 0.00 | 50 | 1027.3 |
| 20260505021002 | 67 | 17 | 1.7 | 2.6 | 0.00 | 0.00 | 0.00 | 51 | 1027.4 |
| 20260505020002 | 66 | 25 | 1.7 | 2.6 | 0.00 | 0.00 | 0.00 | 53 | 1027.4 |
| 20260505015002 | 65 | 72 | 1.7 | 2.6 | 0.00 | 0.00 | 0.00 | 55 | 1027.4 |
| 20260505014002 | 65 | 59 | 1.7 | 2.6 | 0.00 | 0.00 | 0.00 | 55 | 1027.4 |
| 20260505013023 | 65 | 43 | 1.7 | 2.6 | 0.00 | 0.00 | 0.00 | 55 | 1027.5 |
| 20260505012003 | 64 | 88 | 1.7 | 5.2 | 0.00 | 0.00 | 0.00 | 57 | 1027.5 |
| 20260505011024 | 64 | 98 | 1.7 | 5.2 | 0.00 | 0.00 | 0.00 | 58 | 1027.5 |
| 20260505010003 | 63 | 63 | 2.6 | 4.3 | 0.00 | 0.00 | 0.00 | 59 | 1027.6 |
| 20260505005002 | 62 | 82 | 1.7 | 4.3 | 0.00 | 0.00 | 0.00 | 60 | 1027.7 |
| 20260505004002 | 61 | 31 | 1.7 | 2.6 | 0.00 | 0.00 | 0.00 | 61 | 1027.6 |
| 20260505003002 | 60 | 56 | 2.6 | 6.1 | 0.00 | 0.00 | 0.00 | 62 | 1027.5 |
| 20260505002002 | 59 | 82 | 1.7 | 4.3 | 0.00 | 0.00 | 0.00 | 65 | 1027.4 |
| 20260505001002 | 58 | 72 | 1.7 | 4.3 | 0.00 | 0.00 | 0.00 | 67 | 1027.1 |
| 20260505000024 | 57 | 79 | 3.5 | 5.2 | 0.00 | 0.00 | 0.00 | 68 | 1026.9 |
| 20260504235002 | 57 | 83 | 4.3 | 7.0 | 0.00 | 0.00 | 0.00 | 69 | 1026.9 |
| 20260504234002 | 56 | 65 | 2.6 | 4.3 | 0.00 | 0.00 | 0.00 | 71 | 1026.8 |
| 20260504233001 | 55 | 35 | 2.6 | 7.0 | 0.00 | 0.00 | 0.00 | 73 | 1026.7 |
| 20260504232002 | 54 | 102 | 3.5 | 10.4 | 0.00 | 0.00 | 0.00 | 75 | 1026.6 |
| 20260504231002 | 55 | 6 | 2.6 | 5.2 | 0.00 | 0.00 | 0.00 | 74 | 1026.6 |
| 20260504230002 | 55 | 71 | 0.9 | 2.6 | 0.00 | 0.00 | 0.00 | 71 | 1026.5 |